Location: Caltech
(34.1382°N, 118.1253°W)
Time: 11:16:28
(UTC-07:00)

ADEOS II - Visible Passes

Search period start: 23 March 2017 00:00
Search period end: 02 April 2017 00:00
Orbit: 800 x 801 km, 98.4° (Epoch: 21 March)

Date Brightness Start Highest point End Pass type
(mag) Time Alt. Az. Time Alt. Az. Time Alt. Az.
23 Mar 2.4 04:31:56 10° NNE 04:37:09 62° E 04:38:23 48° SSE visible
23 Mar 3.8 06:13:38 10° NNW 06:16:18 14° WNW 06:18:57 10° W visible
24 Mar 3.5 04:05:58 10° NNE 04:10:41 33° E 04:11:50 30° ESE visible
24 Mar 3.1 05:45:59 10° NNW 05:50:12 25° WNW 05:52:47 17° WSW visible
25 Mar 4.3 03:40:35 10° NE 03:44:08 18° E 03:45:16 17° ESE visible
25 Mar 2.4 05:19:02 10° N 05:24:00 44° WNW 05:26:14 29° SW visible
26 Mar 1.9 04:52:26 10° N 04:57:43 82° WNW 04:59:40 40° SSW visible
27 Mar 2.6 04:26:10 10° NNE 04:31:20 54° E 04:33:07 37° SSE visible
27 Mar 3.7 06:07:27 10° NNW 06:10:32 16° WNW 06:13:37 10° WSW visible
28 Mar 3.7 04:00:17 10° NE 04:04:51 29° E 04:06:33 24° SE visible
28 Mar 3.0 05:40:01 10° NNW 05:44:26 28° WNW 05:47:30 16° WSW visible
29 Mar 4.5 03:35:06 10° NE 03:38:16 16° E 03:39:58 14° ESE visible
29 Mar 2.3 05:13:08 10° N 05:18:12 50° WNW 05:20:56 26° SW visible
30 Mar 2.0 04:46:37 10° NNE 04:51:54 89° ESE 04:54:22 33° SSW visible
31 Mar 2.9 04:20:25 10° NNE 04:25:30 48° E 04:27:48 29° SSE visible
31 Mar 3.6 06:01:20 10° NNW 06:04:47 18° WNW 06:08:13 10° WSW visible
01 Apr 3.9 03:54:38 10° NE 03:58:59 26° E 04:01:13 20° SE visible
01 Apr 2.9 05:34:03 10° N 05:38:39 31° WNW 05:42:11 15° SW visible
